Overview Statistics Trail Chart Weather Telemetry Raw packets
 

This is the latest recevied weather packets stored in our database for station/object Ostrach. If no packets are shown the sender has not sent any weather packets the latest 10 day(s).

<< 7 8 9 10 11 12 13 >>
Time Temp. Humidity Pressure Rain* Wind** Luminosity Snow
1788312729 10.56° C 91% 1018.8 hPa 0 mm - - -
1788310930 10° C 91% 1019.1 hPa 0 mm - - -
1788309131 10° C 90% 1019 hPa 0 mm - - -
1788307331 10.56° C 89% 1019.1 hPa 0 mm - - -
1788305531 10.56° C 89% 1019.1 hPa 0 mm - - -
1788303731 11.11° C 89% 1019.2 hPa 0 mm - - -
1788301930 11.67° C 88% 1019.3 hPa 0 mm - - -
1788300131 11.67° C 87% 1019.3 hPa 0 mm - - -
1788298331 12.22° C 86% 1019.2 hPa 0 mm - - -
1788296531 12.78° C 85% 1019.2 hPa 0 mm - - -
1788294730 13.33° C 83% 1019.2 hPa 0 mm - - -
1788292931 13.89° C 81% 1018.9 hPa 0 mm - - -
1788291131 15° C 79% 1018.7 hPa 0 mm - - -
1788289330 16.11° C 76% 1018.6 hPa 0 mm - - -
1788287533 17.22° C 73% 1018.3 hPa 0 mm - - -
1788285731 18.89° C 66% 1018 hPa 0 mm - - -
1788283931 21.11° C 60% 1017.7 hPa 0 mm - - -
1788282131 23.33° C 49% 1017.7 hPa 0 mm - - -
1788280331 23.89° C 48% 1017.9 hPa 0 mm - - -
1788278530 23.89° C 46% 1017.9 hPa 0 mm - - -
1788276731 25° C 45% 1017.8 hPa 0 mm - - -
1788274930 24.44° C 48% 1017.7 hPa 0 mm - - -
1788273131 25° C 46% 1017.8 hPa 0 mm - - -
1788271330 25° C 47% 1018 hPa 0 mm - - -
1788269530 24.44° C 48% 1018 hPa 0 mm - - -

* Rain since midnight (hover to see other rain measurements)
** Current wind speed in m/s (hover to see current wind gust speed)